Tracking 19706 objects as of 16-Jun-2019
HD Live streaming from Space Station
objects crossing your sky now

PALAPA B1

Track PALAPA B1 now!
PALAPA B1 is classified as:


NORAD ID: 14134
Int'l Code: 1983-059C
Perigee: 35,783.2 km
Apogee: 35,836.1 km
Inclination: 14.5 °
Period: 1,436.9 minutes
Semi major axis: 42180 km
RCS: 1.2604 m2 (large)
Launch date: June 18, 1983
Source: Indonesia (INDO)
Launch site: AIR FORCE EASTERN TEST RANGE (AFETR)
aabbcc
Your satellite tracking list
Your tracking list is empty




NASA's NSSDC Master Catalog

Two Line Element Set (TLE):
1 14134U 83059C   19167.33220885 -.00000228  00000-0  00000+0 0  9995
2 14134  14.5415 350.3953 0006274  23.1706 162.2908  1.00215148 95207
Source of the keplerian elements: AFSPC